McCook, NE

12:50 PM CDT on July 23, 2016 (GMT -0500)
McCook Municipal

Weather History for KMCK - April, 2012

Change the Weather History Date:

Monday, April 2, 2012

  Actual Average Record
Temperature  
Mean Temperature 55 °F 45 °F  
Max Temperature 69 °F 60 °F 90 °F (1996)
Min Temperature 40 °F 29 °F 0 °F (1936)
Degree Days  
Heating Degree Days 10    
Growing Degree Days 6 (Base 50)    
Moisture  
Dew Point 38 °F    
Average Humidity 56    
Maximum Humidity 80    
Minimum Humidity 32    
Precipitation  
Precipitation 0.00 in 0.06 in 1.03 in (1988)
Month to date precipitation 0.00 0.11  
Year to date precipitation 0.89 2.60  
Sea Level Pressure  
Sea Level Pressure 29.62 in    
Wind  
Wind Speed 15 mph (NNW)    
Max Wind Speed 31 mph    
Max Gust Speed 39 mph    
Visibility 10 miles    
Events      
T = Trace of Precipitation, MM = Missing Value Source: NWS Daily Summary

Daily Weather History Graph

Daily Weather History Graph

Search for Another Location

Airport or City:

Trip Planner

Search our weather history database for the weather conditions in past years. The results will help you decide how hot, cold, wet, or windy it might be!

Date:

Astronomy

Apr. 02, 2012 Rise Set
Actual Time 7:23 AM CDT 8:08 PM CDT
Civil Twilight 6:56 AM CDT 8:35 PM CDT
Nautical Twilight 6:23 AM CDT 9:08 PM CDT
Astronomical Twilight 5:50 AM CDT 9:42 PM CDT
Moon 3:45 PM CDT (4/2) 4:38 AM CDT (4/2)
Length of Visible Light 13h 39m
Length of Day
12h 44m
Waxing Gibbous, 78% of the Moon is Illuminated
Apr 2
Waxing Gibbous
Apr 6
Full
Apr 13
Last Quarter
Apr 21
New
Apr 29
First Quarter

Hourly Weather History & Observations

Time (CDT) Temp. Windchill Dew Point Humidity Pressure Visibility Wind Dir Wind Speed Gust Speed Precip Events Conditions
12:53 AM 61.0 °F - 41.0 °F 48% 29.25 in 10.0 mi SW 4.6 mph - N/A   Clear
1:53 AM 57.2 °F - 42.8 °F 59% 29.31 in 10.0 mi South 5.8 mph - N/A   Clear
2:53 AM 55.0 °F - 39.0 °F 55% 29.25 in 10.0 mi SSW 5.8 mph - N/A   Clear
3:53 AM 52.0 °F - 37.9 °F 59% 29.24 in 10.0 mi SE 3.5 mph - N/A   Clear
4:53 AM 46.9 °F - 35.1 °F 63% 29.27 in 10.0 mi SW 8.1 mph - N/A   Clear
5:53 AM 42.1 °F 37.1 °F 33.1 °F 70% 29.32 in 10.0 mi West 8.1 mph - N/A   Clear
6:53 AM 42.1 °F 34.9 °F 36.0 °F 79% 29.37 in 10.0 mi NW 13.8 mph - N/A   Clear
7:53 AM 48.0 °F - 42.1 °F 80% 29.46 in 10.0 mi NW 11.5 mph - N/A   Clear
8:53 AM 53.1 °F - 39.9 °F 61% 29.51 in 10.0 mi NNW 28.8 mph 33.4 mph N/A   Clear
9:53 AM 55.9 °F - 37.0 °F 49% 29.53 in 10.0 mi North 27.6 mph 36.8 mph N/A   Clear
10:53 AM 60.1 °F - 39.0 °F 46% 29.56 in 10.0 mi North 29.9 mph 35.7 mph N/A   Clear
11:53 AM 64.0 °F - 42.1 °F 45% 29.60 in 10.0 mi North 27.6 mph 33.4 mph N/A   Clear
12:53 PM 66.0 °F - 42.1 °F 42% 29.62 in 10.0 mi NNE 18.4 mph 29.9 mph N/A   Clear
1:53 PM 68.0 °F - 41.0 °F 37% 29.65 in 10.0 mi North 13.8 mph 25.3 mph N/A   Clear
2:53 PM 69.1 °F - 39.0 °F 33% 29.68 in 10.0 mi North 17.3 mph 27.6 mph N/A   Clear
3:53 PM 69.1 °F - 37.9 °F 32% 29.71 in 10.0 mi North 20.7 mph 26.5 mph N/A   Clear
4:53 PM 66.0 °F - 37.0 °F 34% 29.74 in 10.0 mi North 28.8 mph 36.8 mph N/A   Clear
5:53 PM 62.1 °F - 37.0 °F 39% 29.79 in 10.0 mi North 28.8 mph 35.7 mph N/A   Clear
6:53 PM 55.0 °F - 36.0 °F 49% 29.85 in 10.0 mi North 28.8 mph 38.0 mph N/A   Clear
7:53 PM 48.9 °F - 36.0 °F 61% 29.91 in 10.0 mi NNE 28.8 mph 39.1 mph N/A   Mostly Cloudy
8:42 PM 46.4 °F 39.0 °F 37.4 °F 71% 29.95 in 10.0 mi North 19.6 mph 27.6 mph N/A   Overcast
8:53 PM 46.9 °F - 37.0 °F 68% 29.96 in 10.0 mi North 31.1 mph 39.1 mph N/A   Overcast
9:53 PM 46.0 °F 36.5 °F 36.0 °F 68% 29.98 in 10.0 mi North 31.1 mph 36.8 mph N/A   Overcast
10:53 PM 46.0 °F 37.6 °F 37.0 °F 71% 29.98 in 10.0 mi North 24.2 mph 34.5 mph N/A   Overcast
11:53 PM 46.0 °F 39.6 °F 37.0 °F 71% 30.01 in 10.0 mi North 15.0 mph - N/A   Overcast